GW5273 Weather Reports


time (UTC)temp
C
wind
direction
speed
KPH
gust
KPH
rain 1hr
cm
rain 24hr
cm
rain mn
cm
humidity
%
barometer
mb
20260510010124 9 52 0.0 0.0 0.00 0.00 0.00 88 1013.9
20260510005619 9 52 0.0 0.0 0.00 0.00 0.00 87 1013.7
20260510005117 10 52 0.0 0.0 0.00 0.00 0.00 85 1014.0
20260510004615 10 52 0.0 0.0 0.00 0.00 0.00 85 1013.6
20260510004112 10 52 0.0 0.0 0.00 0.00 0.00 84 1013.5
20260510003609 10 52 0.0 0.0 0.00 0.00 0.00 84 1013.5
20260510003105 10 52 0.0 0.0 0.00 0.00 0.00 82 1013.4
20260510002600 11 52 0.0 0.0 0.00 0.00 0.00 80 1013.5
20260510002057 11 51 0.0 0.0 0.00 0.00 0.00 79 1013.5
20260510001554 11 51 0.0 0.0 0.00 0.00 0.00 77 1013.4
20260510001053 12 51 0.0 0.0 0.00 0.00 0.00 75 1013.3
20260510000548 12 51 0.0 1.6 0.00 0.00 0.00 74 1013.2
20260510000044 12 93 0.0 1.6 0.00 0.00 0.00 74 1013.3
20260509235541 12 329 0.0 0.0 0.00 0.00 0.00 75 1013.0
20260509235038 12 173 1.6 3.2 0.00 0.00 0.00 76 1013.1
20260509234534 12 103 0.0 0.0 0.00 0.00 0.00 74 1013.1
20260509234032 12 358 0.0 0.0 0.00 0.00 0.00 73 1013.0
20260509233529 12 1 0.0 0.0 0.00 0.00 0.00 73 1012.9
20260509233026 12 359 0.0 0.0 0.00 0.00 0.00 74 1012.9
20260509232523 12 359 0.0 0.0 0.00 0.00 0.00 73 1013.0
20260509232020 13 34 0.0 0.0 0.00 0.00 0.00 71 1013.3
20260509231516 13 350 1.6 4.8 0.00 0.00 0.00 70 1013.0
20260509231014 13 25 0.0 0.0 0.00 0.00 0.00 71 1013.3
20260509230511 13 66 0.0 0.0 0.00 0.00 0.00 70 1012.9
20260509230008 13 73 0.0 0.0 0.00 0.00 0.00 69 1013.1
20260509225503 13 29 0.0 0.0 0.00 0.00 0.00 68 1013.1
20260509224959 13 39 0.0 0.0 0.00 0.00 0.00 67 1013.4
20260509224454 13 46 0.0 0.0 0.00 0.00 0.00 66 1013.2
20260509223952 14 77 0.0 1.6 0.00 0.00 0.00 67 1013.1
20260509223448 14 52 0.0 1.6 0.00 0.00 0.00 65 1013.3
20260509222946 15 34 1.6 1.6 0.00 0.00 0.00 63 1013.1
20260509222441 15 66 0.0 1.6 0.00 0.00 0.00 65 1013.4
20260509221937 14 41 0.0 0.0 0.00 0.00 0.00 62 1013.4
20260509221434 14 32 0.0 1.6 0.00 0.00 0.00 64 1013.5
20260509220929 14 358 0.0 0.0 0.00 0.00 0.00 63 1013.5
20260509220425 15 50 0.0 1.6 0.00 0.00 0.00 62 1013.5
20260509215922 15 30 3.2 4.8 0.00 0.00 0.00 60 1013.4
20260509215417 15 46 0.0 1.6 0.00 0.00 0.00 64 1013.4
20260509214915 15 18 0.0 1.6 0.00 0.00 0.00 62 1013.4
20260509214412 14 21 1.6 3.2 0.00 0.00 0.00 61 1013.4
20260509213910 15 18 0.0 1.6 0.00 0.00 0.00 62 1013.2
20260509213405 15 35 0.0 3.2 0.00 0.00 0.00 62 1013.5
20260509212903 15 100 0.0 1.6 0.00 0.00 0.00 62 1013.1
20260509212400 15 53 0.0 1.6 0.00 0.00 0.00 61 1013.3
20260509211856 15 26 1.6 3.2 0.00 0.00 0.00 62 1013.1
20260509211351 15 19 3.2 3.2 0.00 0.00 0.00 62 1013.0
20260509210848 15 110 1.6 1.6 0.00 0.00 0.00 63 1013.2
20260509210346 16 337 1.6 1.6 0.00 0.00 0.00 62 1013.1
20260509205846 16 59 0.0 1.6 0.00 0.00 0.00 61 1013.1
20260509205340 15 43 0.0 0.0 0.00 0.00 0.00 62 1013.0
20260509204838 15 14 1.6 1.6 0.00 0.00 0.00 62 1013.2
20260509204334 15 290 0.0 1.6 0.00 0.00 0.00 64 1013.1
20260509203830 15 5 0.0 1.6 0.00 0.00 0.00 64 1013.0
20260509203327 15 117 0.0 3.2 0.00 0.00 0.00 65 1013.2
20260509202823 15 17 0.0 1.6 0.00 0.00 0.00 61 1013.0
20260509202320 16 271 4.8 6.4 0.00 0.00 0.00 61 1013.1
20260509201819 15 123 0.0 1.6 0.00 0.00 0.00 63 1013.0
20260509201316 15 76 0.0 6.4 0.00 0.00 0.00 64 1012.9
20260509200812 15 215 3.2 3.2 0.00 0.00 0.00 62 1013.0
20260509200308 15 36 1.6 1.6 0.00 0.00 0.00 61 1013.1
20260509195804 15 53 0.0 1.6 0.00 0.00 0.00 61 1013.0
20260509195259 15 49 0.0 1.6 0.00 0.00 0.00 62 1013.1
20260509194759 15 83 0.0 0.0 0.00 0.00 0.00 60 1012.9
20260509194255 15 107 0.0 0.0 0.00 0.00 0.00 65 1013.0
20260509193752 15 48 0.0 0.0 0.00 0.00 0.00 60 1013.1
20260509193247 15 28 0.0 1.6 0.00 0.00 0.00 62 1013.1
20260509192743 15 86 0.0 1.6 0.00 0.00 0.00 60 1013.2
20260509192243 15 84 0.0 3.2 0.00 0.00 0.00 60 1013.1
20260509191739 15 79 0.0 0.0 0.00 0.00 0.00 59 1013.0
20260509191236 15 74 0.0 0.0 0.00 0.00 0.00 58 1012.6
20260509190732 16 153 0.0 1.6 0.00 0.00 0.00 57 1012.9
20260509190229 16 70 0.0 0.0 0.00 0.00 0.00 54 1012.9
20260509185726 16 78 0.0 1.6 0.00 0.00 0.00 54 1012.6
20260509185223 16 53 0.0 3.2 0.00 0.00 0.00 59 1012.6
20260509184720 16 40 1.6 1.6 0.00 0.00 0.00 52 1012.8
20260509184217 16 106 0.0 1.6 0.00 0.00 0.00 54 1012.9
20260509183713 16 34 0.0 1.6 0.00 0.00 0.00 55 1012.8
20260509183209 16 53 0.0 1.6 0.00 0.00 0.00 53 1012.6
20260509182704 16 53 1.6 3.2 0.00 0.00 0.00 53 1012.5
20260509182202 16 55 1.6 3.2 0.00 0.00 0.00 53 1012.9
20260509181700 17 51 1.6 1.6 0.00 0.00 0.00 51 1012.6
20260509181157 17 9 1.6 3.2 0.00 0.00 0.00 52 1012.8
20260509180654 17 54 3.2 3.2 0.00 0.00 0.00 50 1012.8
20260509180150 17 86 0.0 1.6 0.00 0.00 0.00 53 1012.9
20260509175646 17 49 1.6 3.2 0.00 0.00 0.00 50 1012.9
20260509175143 16 71 1.6 3.2 0.00 0.00 0.00 56 1013.0
20260509174639 16 65 0.0 1.6 0.00 0.00 0.00 54 1013.1
20260509174134 16 120 1.6 1.6 0.00 0.00 0.00 56 1013.1
20260509173630 15 342 0.0 0.0 0.00 0.00 0.00 55 1013.0
20260509173126 15 352 1.6 4.8 0.00 0.00 0.00 55 1012.9
20260509172623 16 332 4.8 4.8 0.00 0.00 0.00 54 1013.3
20260509172119 15 18 1.6 6.4 0.00 0.00 0.00 56 1013.2
20260509171615 15 145 1.6 1.6 0.00 0.00 0.00 60 1013.5
20260509171111 14 54 0.0 1.6 0.00 0.00 0.00 60 1013.3
20260509170607 14 31 3.2 3.2 0.00 0.00 0.00 58 1013.3
20260509170104 13 22 1.6 3.2 0.00 0.00 0.00 63 1013.4
20260509165602 13 24 0.0 1.6 0.00 0.00 0.00 63 1013.5
20260509165058 13 99 0.0 0.0 0.00 0.00 0.00 62 1013.6
20260509164554 13 125 0.0 0.0 0.00 0.00 0.00 65 1013.5
20260509164050 13 215 0.0 0.0 0.00 0.00 0.00 64 1013.6
20260509163549 13 215 0.0 0.0 0.00 0.00 0.00 63 1013.9
20260509163048 13 198 0.0 0.0 0.00 0.00 0.00 64 1013.7
20260509162546 12 198 0.0 0.0 0.00 0.00 0.00 64 1013.9
20260509162042 12 341 0.0 1.6 0.00 0.00 0.00 64 1013.6
20260509161538 13 346 0.0 0.0 0.00 0.00 0.00 65 1013.4
20260509161033 13 345 0.0 0.0 0.00 0.00 0.00 62 1013.6
20260509160530 13 22 0.0 1.6 0.00 0.00 0.00 60 1013.7
20260509160025 13 351 1.6 3.2 0.00 0.00 0.00 59 1013.6
20260509155521 13 133 0.0 3.2 0.00 0.00 0.00 63 1013.7
20260509155017 12 20 0.0 3.2 0.00 0.00 0.00 60 1014.0
20260509154514 13 23 0.0 0.0 0.00 0.00 0.00 61 1014.1
20260509154012 12 23 0.0 1.6 0.00 0.00 0.00 62 1014.0
20260509153508 12 351 0.0 0.0 0.00 0.00 0.00 62 1014.1
20260509153005 12 351 0.0 0.0 0.00 0.00 0.00 65 1014.2
20260509152501 12 351 0.0 1.6 0.00 0.00 0.00 64 1014.3
20260509151958 12 302 0.0 0.0 0.00 0.00 0.00 63 1014.3
20260509151454 11 351 0.0 0.0 0.00 0.00 0.00 64 1014.3
20260509150953 12 351 0.0 0.0 0.00 0.00 0.00 64 1014.3
20260509150450 12 313 0.0 0.0 0.00 0.00 0.00 66 1014.1
20260509145948 12 309 3.2 3.2 0.00 0.00 0.00 61 1013.9
20260509145443 12 234 0.0 1.6 0.00 0.00 0.00 61 1014.1
20260509144938 12 223 0.0 0.0 0.00 0.00 0.00 66 1013.9
20260509144436 12 223 0.0 0.0 0.00 0.00 0.00 70 1014.1
20260509143932 11 224 0.0 1.6 0.00 0.00 0.00 70 1014.2
20260509143430 11 191 0.0 1.6 0.00 0.00 0.00 72 1014.0
20260509142925 11 217 0.0 3.2 0.00 0.00 0.00 70 1013.9
20260509142422 11 202 0.0 1.6 0.00 0.00 0.00 73 1013.7
20260509141918 11 219 0.0 3.2 0.00 0.00 0.00 72 1014.1
20260509141415 11 110 0.0 3.2 0.00 0.00 0.00 79 1014.1
20260509140912 11 307 0.0 1.6 0.00 0.00 0.00 76 1014.0
20260509140408 10 250 0.0 0.0 0.00 0.00 0.00 77 1014.1
20260509135907 10 246 0.0 1.6 0.00 0.00 0.00 75 1014.0
20260509135404 10 277 1.6 1.6 0.00 0.00 0.00 76 1014.1
20260509134901 10 221 0.0 1.6 0.00 0.00 0.00 81 1014.2
20260509134358 10 309 0.0 0.0 0.00 0.00 0.00 79 1014.2
20260509133855 10 309 0.0 0.0 0.00 0.00 0.00 79 1014.2
20260509133351 10 309 0.0 0.0 0.00 0.00 0.00 78 1014.2
20260509132851 10 324 0.0 0.0 0.00 0.00 0.00 79 1014.1
20260509132348 10 333 0.0 0.0 0.00 0.00 0.00 81 1014.3
20260509131845 9 331 0.0 0.0 0.00 0.00 0.00 81 1014.2
20260509131342 9 332 0.0 0.0 0.00 0.00 0.00 80 1014.0
20260509130838 9 331 0.0 0.0 0.00 0.00 0.00 79 1014.0
20260509130334 9 333 0.0 0.0 0.00 0.00 0.00 81 1014.1
20260509125831 8 334 0.0 0.0 0.00 0.00 0.00 82 1014.0
20260509125327 8 334 0.0 0.0 0.00 0.00 0.00 86 1013.9
20260509124824 8 334 0.0 0.0 0.00 0.00 0.00 86 1014.0
20260509124320 8 334 0.0 0.0 0.00 0.00 0.00 87 1014.1
20260509123819 8 334 0.0 0.0 0.00 0.00 0.00 87 1014.0
20260509123316 8 340 0.0 0.0 0.00 0.00 0.00 86 1014.1
20260509122811 8 341 0.0 0.0 0.00 0.00 0.00 89 1013.7
20260509122308 8 347 0.0 0.0 0.00 0.00 0.00 89 1014.1
20260509121805 7 347 0.0 0.0 0.00 0.00 0.00 89 1014.2
20260509121302 7 347 0.0 0.0 0.00 0.00 0.00 89 1014.1
20260509120801 7 347 0.0 0.0 0.00 0.00 0.00 88 1014.2
20260509120258 7 347 0.0 0.0 0.00 0.00 0.00 87 1014.4
20260509115756 7 347 0.0 0.0 0.00 0.00 0.00 87 1014.2
20260509115253 7 347 0.0 0.0 0.00 0.00 0.00 86 1014.4
20260509114751 7 347 0.0 0.0 0.00 0.00 0.00 87 1014.3
20260509114249 7 347 0.0 0.0 0.00 0.00 0.00 87 1014.4
20260509113748 7 347 0.0 0.0 0.00 0.00 0.00 87 1014.4
20260509113244 6 347 0.0 0.0 0.00 0.00 0.00 88 1014.4
20260509112741 6 347 0.0 0.0 0.00 0.00 0.00 86 1014.4
20260509112238 6 347 0.0 0.0 0.00 0.00 0.00 86 1014.2
20260509111736 6 348 0.0 0.0 0.00 0.00 0.00 89 1014.5
20260509111232 6 348 0.0 0.0 0.00 0.00 0.00 90 1014.4
20260509110730 6 348 0.0 0.0 0.00 0.00 0.00 90 1014.3
20260509110226 6 348 0.0 0.0 0.00 0.00 0.00 90 1014.4
20260509105724 6 348 0.0 0.0 0.00 0.00 0.00 89 1014.3
20260509105222 6 348 0.0 0.0 0.00 0.00 0.00 88 1014.3
20260509104718 6 348 0.0 0.0 0.00 0.00 0.00 88 1014.4
20260509104215 6 348 0.0 0.0 0.00 0.00 0.00 88 1014.2
20260509103714 5 348 0.0 0.0 0.00 0.00 0.00 85 1014.1
20260509103210 5 348 0.0 0.0 0.00 0.00 0.00 86 1014.3
20260509102709 6 19 0.0 0.0 0.00 0.00 0.00 87 1014.4
20260509102205 6 19 0.0 0.0 0.00 0.00 0.00 87 1014.4
20260509101701 6 19 0.0 0.0 0.00 0.00 0.00 87 1014.3
20260509101158 6 75 0.0 0.0 0.00 0.00 0.00 86 1014.3
20260509100656 6 79 0.0 0.0 0.00 0.00 0.00 85 1014.1
20260509100152 5 79 0.0 0.0 0.00 0.00 0.00 90 1014.0
20260509095649 5 79 0.0 0.0 0.00 0.00 0.00 88 1014.1
20260509095146 6 79 0.0 0.0 0.00 0.00 0.00 89 1014.0
20260509094643 6 79 0.0 0.0 0.00 0.00 0.00 89 1014.3
20260509094140 6 79 0.0 0.0 0.00 0.00 0.00 88 1014.2
20260509093639 6 77 0.0 0.0 0.00 0.00 0.00 86 1013.9
20260509093135 6 77 0.0 0.0 0.00 0.00 0.00 86 1014.3
20260509092633 6 77 0.0 0.0 0.00 0.00 0.00 86 1014.2
20260509092131 6 77 0.0 0.0 0.00 0.00 0.00 85 1014.5
20260509091629 7 77 0.0 0.0 0.00 0.00 0.00 84 1014.4
20260509091125 7 77 0.0 0.0 0.00 0.00 0.00 77 1014.3
20260509090623 7 77 0.0 0.0 0.00 0.00 0.00 77 1014.3
20260509090120 7 77 0.0 0.0 0.00 0.00 0.00 81 1014.3
20260509085618 7 77 0.0 0.0 0.00 0.00 0.00 78 1014.0
20260509085113 7 77 0.0 0.0 0.00 0.00 0.00 79 1014.2
20260509084611 7 77 0.0 0.0 0.00 0.00 0.00 76 1014.2
20260509084107 7 77 0.0 0.0 0.00 0.00 0.00 75 1014.3
20260509083605 7 77 0.0 0.0 0.00 0.00 0.00 76 1014.2
20260509083101 7 77 0.0 0.0 0.00 0.00 0.00 77 1014.5
20260509082559 7 77 0.0 0.0 0.00 0.00 0.00 80 1014.3
20260509082055 8 77 0.0 0.0 0.00 0.00 0.00 79 1014.4
20260509081552 8 77 0.0 0.0 0.00 0.00 0.00 76 1014.3
20260509081049 8 75 0.0 0.0 0.00 0.00 0.00 78 1014.3
20260509080547 7 141 0.0 0.0 0.00 0.00 0.00 81 1014.3
20260509080045 7 141 0.0 0.0 0.00 0.00 0.00 80 1014.4
20260509075542 8 141 0.0 0.0 0.00 0.00 0.00 78 1014.3
20260509075040 7 141 0.0 0.0 0.00 0.00 0.00 79 1014.4
20260509074537 7 144 0.0 0.0 0.00 0.00 0.00 80 1014.3
20260509074033 7 145 0.0 0.0 0.00 0.00 0.00 80 1014.3
20260509073530 7 146 0.0 0.0 0.00 0.00 0.00 80 1014.3
20260509073026 7 154 0.0 0.0 0.00 0.00 0.00 79 1014.3
20260509072523 7 154 0.0 0.0 0.00 0.00 0.00 78 1014.4
20260509072020 7 154 0.0 0.0 0.00 0.00 0.00 79 1014.4
20260509071517 7 154 0.0 0.0 0.00 0.00 0.00 80 1014.4
20260509071014 7 154 0.0 0.0 0.00 0.00 0.00 78 1014.5
20260509070511 7 154 0.0 0.0 0.00 0.00 0.00 78 1014.4
20260509070008 7 155 0.0 0.0 0.00 0.00 0.00 79 1014.4
20260509065503 7 155 0.0 0.0 0.00 0.00 0.00 81 1014.3
20260509064959 7 177 0.0 0.0 0.00 0.00 0.00 80 1014.3
20260509064457 7 177 0.0 0.0 0.00 0.00 0.00 83 1014.3
20260509063955 7 177 0.0 0.0 0.00 0.00 0.00 84 1014.4
20260509063450 6 177 0.0 0.0 0.00 0.00 0.00 87 1014.4
20260509062948 6 177 0.0 0.0 0.00 0.00 0.00 91 1014.3
20260509062445 6 139 0.0 0.0 0.00 0.00 0.00 92 1014.5
20260509061942 6 139 0.0 0.0 0.00 0.00 0.00 92 1014.4
20260509061439 6 138 0.0 0.0 0.00 0.00 0.00 93 1014.7
20260509060936 6 139 0.0 0.0 0.00 0.00 0.00 92 1014.6
20260509060434 5 57 0.0 0.0 0.00 0.00 0.00 92 1014.7
20260509055929 5 56 0.0 0.0 0.00 0.00 0.00 92 1014.6
20260509055424 5 54 0.0 0.0 0.00 0.00 0.00 92 1015.1
20260509054921 5 52 0.0 0.0 0.00 0.00 0.00 92 1014.7
20260509054418 5 52 0.0 0.0 0.00 0.00 0.00 92 1014.8
20260509053917 5 52 0.0 0.0 0.00 0.00 0.00 91 1014.9
20260509053414 5 52 0.0 0.0 0.00 0.00 0.00 91 1015.1
20260509052906 5 52 0.0 0.0 0.00 0.00 0.00 91 1015.1
20260509052403 5 52 0.0 0.0 0.00 0.00 0.00 91 1014.9
20260509051901 5 52 0.0 0.0 0.00 0.00 0.00 90 1015.1
20260509051359 5 52 0.0 0.0 0.00 0.00 0.00 89 1015.3
20260509050855 6 50 0.0 0.0 0.00 0.00 0.00 88 1015.3
20260509050352 6 50 0.0 0.0 0.00 0.00 0.00 88 1015.3
20260509045849 6 50 0.0 0.0 0.00 0.00 0.00 88 1015.3
20260509045346 6 50 0.0 0.0 0.00 0.00 0.00 88 1015.6
20260509044843 6 49 0.0 0.0 0.00 0.00 0.00 86 1015.4
20260509044340 6 56 0.0 0.0 0.00 0.00 0.00 86 1015.1
20260509043837 6 61 0.0 0.0 0.00 0.00 0.00 88 1015.3
20260509043333 6 61 0.0 0.0 0.00 0.00 0.00 87 1015.5
20260509042829 6 61 0.0 0.0 0.00 0.00 0.00 87 1015.5
20260509042326 6 61 0.0 0.0 0.00 0.00 0.00 89 1015.3
20260509041823 6 61 0.0 0.0 0.00 0.00 0.00 86 1015.4
20260509041320 6 61 0.0 0.0 0.00 0.00 0.00 87 1015.5
20260509040818 6 61 0.0 0.0 0.00 0.00 0.00 87 1015.6
20260509040315 6 61 0.0 0.0 0.00 0.00 0.00 86 1015.6
20260509035812 6 61 0.0 0.0 0.00 0.00 0.00 87 1015.4
20260509035309 6 61 0.0 0.0 0.00 0.00 0.00 86 1015.5
20260509034804 6 61 0.0 0.0 0.00 0.00 0.00 84 1015.4
20260509034302 6 61 0.0 0.0 0.00 0.00 0.00 85 1015.5
20260509033759 6 61 0.0 0.0 0.00 0.00 0.00 86 1015.6
20260509033256 6 59 0.0 0.0 0.00 0.00 0.00 85 1015.6
20260509032753 6 59 0.0 0.0 0.00 0.00 0.00 84 1015.6
20260509032250 7 59 0.0 0.0 0.00 0.00 0.00 83 1015.5
20260509031747 7 59 0.0 0.0 0.00 0.00 0.00 81 1015.5
20260509031245 7 59 0.0 0.0 0.00 0.00 0.00 79 1015.7
20260509030743 7 60 0.0 0.0 0.00 0.00 0.00 76 1015.4
20260509030240 7 60 0.0 0.0 0.00 0.00 0.00 78 1015.4
20260509025737 7 60 0.0 0.0 0.00 0.00 0.00 80 1015.6
20260509025232 7 60 0.0 0.0 0.00 0.00 0.00 83 1015.4
20260509024728 7 60 0.0 0.0 0.00 0.00 0.00 83 1015.6
20260509024224 7 60 0.0 0.0 0.00 0.00 0.00 86 1015.6
20260509023721 7 60 0.0 0.0 0.00 0.00 0.00 84 1015.6
20260509023219 7 60 0.0 0.0 0.00 0.00 0.00 84 1015.6
20260509022714 7 60 0.0 0.0 0.00 0.00 0.00 82 1015.6
20260509022213 7 60 0.0 0.0 0.00 0.00 0.00 80 1015.6
20260509021709 7 60 0.0 0.0 0.00 0.00 0.00 82 1015.6
20260509021207 7 60 0.0 0.0 0.00 0.00 0.00 83 1015.8
20260509020705 8 60 0.0 0.0 0.00 0.00 0.00 83 1015.5
20260509020201 8 60 0.0 0.0 0.00 0.00 0.00 79 1015.6
20260509015700 8 60 0.0 0.0 0.00 0.00 0.00 79 1015.8
20260509015157 8 60 0.0 0.0 0.00 0.00 0.00 81 1015.9
20260509014654 8 60 0.0 0.0 0.00 0.00 0.00 80 1015.7
20260509014150 8 60 0.0 0.0 0.00 0.00 0.00 79 1015.9
20260509013647 8 60 0.0 0.0 0.00 0.00 0.00 78 1015.8
20260509013143 8 63 0.0 0.0 0.00 0.00 0.00 79 1015.7
20260509012639 8 63 0.0 0.0 0.00 0.00 0.00 75 1015.5
20260509012137 8 63 0.0 0.0 0.00 0.00 0.00 77 1015.4
20260509011635 7 62 0.0 0.0 0.00 0.00 0.00 81 1015.3
20260509011132 7 82 0.0 0.0 0.00 0.00 0.00 80 1015.1
20260509010629 7 82 0.0 0.0 0.00 0.00 0.00 80 1015.2